Location: Newark
(50.2306°N, 14.0814°E)
Time: 00:20:43
(UTC+00:00)

N. Korean satellite - Pass Details

Date: 10 December 2019
Orbit: 454 x 507 km, 97.2° (Epoch: 21 January)

Event Time Altitude Azimuth Distance (km) Brightness Sun altitude
Rises 15:38:05 0° 155° (SSE) 2,603 10.3 -5.8°
Reaches altitude 10° 15:40:12 10° 151° (SSE) 1,721 9.4 -6.1°
Maximum altitude 15:43:50 57° 73° (ENE) 603 6.7 -6.7°
Drops below altitude 10° 15:47:29 10° 355° (N) 1,719 9.1 -7.2°
Sets 15:49:35 0° 351° (N) 2,601 10.1 -7.5°
